| time (UTC) | temp F | wind direction | speed knots | gust knots | rain 1hr in | rain 24hr in | rain mn in | humidity % | barometer mb |
| 20260506113514 | 61 | 0 | 4.3 | 8.7 | 0.00 | 0.00 | 0.00 | 53 | 1010.4 |
| 20260506112513 | 60 | 358 | 2.6 | 8.7 | 0.00 | 0.00 | 0.00 | 55 | 1010.5 |
| 20260506110512 | 60 | 18 | 2.6 | 10.4 | 0.00 | 0.00 | 0.00 | 55 | 1010.6 |
| 20260506104512 | 59 | 60 | 4.3 | 7.8 | 0.00 | 0.00 | 0.00 | 53 | 1010.6 |
| 20260506103513 | 58 | 33 | 4.3 | 10.4 | 0.00 | 0.00 | 0.00 | 55 | 1010.6 |
| 20260506102513 | 59 | 25 | 4.3 | 10.4 | 0.00 | 0.00 | 0.00 | 54 | 1010.7 |
| 20260506100512 | 59 | 8 | 4.3 | 8.7 | 0.00 | 0.00 | 0.00 | 55 | 1010.8 |
| 20260506095513 | 58 | 351 | 4.3 | 8.7 | 0.00 | 0.00 | 0.00 | 57 | 1010.7 |
| 20260506094512 | 58 | 20 | 2.6 | 7.8 | 0.00 | 0.00 | 0.00 | 58 | 1010.8 |
| 20260506092513 | 57 | 5 | 3.5 | 8.7 | 0.00 | 0.00 | 0.00 | 53 | 1010.8 |
| 20260506091513 | 59 | 333 | 4.3 | 7.8 | 0.00 | 0.00 | 0.00 | 51 | 1010.8 |
| 20260506090512 | 59 | 347 | 2.6 | 7.8 | 0.00 | 0.00 | 0.00 | 51 | 1010.7 |
| 20260506085512 | 60 | 27 | 5.2 | 11.3 | 0.00 | 0.00 | 0.00 | 49 | 1010.7 |
| 20260506084513 | 59 | 18 | 4.3 | 7.8 | 0.00 | 0.00 | 0.00 | 45 | 1010.7 |
| 20260506083512 | 59 | 19 | 3.5 | 7.8 | 0.00 | 0.00 | 0.00 | 48 | 1010.7 |
| 20260506081513 | 59 | 42 | 2.6 | 7.8 | 0.00 | 0.00 | 0.00 | 46 | 1010.6 |
| 20260506073513 | 57 | 41 | 3.5 | 10.4 | 0.00 | 0.00 | 0.00 | 48 | 1010.7 |
| 20260506070512 | 56 | 18 | 2.6 | 7.0 | 0.00 | 0.00 | 0.00 | 50 | 1010.7 |
| 20260506061513 | 53 | 38 | 2.6 | 7.0 | 0.00 | 0.00 | 0.00 | 56 | 1010.9 |
| 20260506060512 | 52 | 57 | 4.3 | 10.4 | 0.00 | 0.00 | 0.00 | 54 | 1011.0 |
| 20260506044512 | 45 | 24 | 1.7 | 5.2 | 0.00 | 0.00 | 0.00 | 74 | 1011.0 |
| 20260506043513 | 43 | 19 | 0.9 | 2.6 | 0.00 | 0.00 | 0.00 | 79 | 1011.0 |
| 20260506041513 | 39 | 25 | 0.0 | 0.0 | 0.00 | 0.00 | 0.00 | 79 | 1011.0 |
| 20260506040513 | 39 | 29 | 0.0 | 0.9 | 0.00 | 0.00 | 0.00 | 77 | 1010.9 |
| 20260506035513 | 39 | 30 | 0.0 | 0.9 | 0.00 | 0.00 | 0.00 | 76 | 1010.8 |
| 20260506034513 | 39 | 30 | 0.0 | 1.7 | 0.00 | 0.00 | 0.00 | 75 | 1010.9 |
| 20260506033512 | 39 | 30 | 0.0 | 2.6 | 0.00 | 0.00 | 0.00 | 74 | 1011.0 |
| 20260506032513 | 39 | 38 | 1.7 | 2.6 | 0.00 | 0.00 | 0.00 | 74 | 1011.0 |
| 20260506031512 | 39 | 20 | 0.0 | 2.6 | 0.00 | 0.00 | 0.00 | 73 | 1011.0 |
| 20260506030513 | 40 | 10 | 0.9 | 2.6 | 0.00 | 0.00 | 0.00 | 71 | 1011.1 |
| 20260506023512 | 41 | 42 | 1.7 | 5.2 | 0.00 | 0.00 | 0.00 | 71 | 1011.2 |
| 20260506022513 | 41 | 31 | 0.9 | 4.3 | 0.00 | 0.00 | 0.00 | 72 | 1011.3 |
| 20260506020513 | 43 | 55 | 0.0 | 2.6 | 0.00 | 0.00 | 0.00 | 68 | 1011.4 |
| 20260506015513 | 43 | 53 | 0.9 | 5.2 | 0.00 | 0.00 | 0.00 | 66 | 1011.5 |
| 20260506003513 | 43 | 20 | 1.7 | 6.1 | 0.00 | 0.00 | 0.00 | 75 | 1011.0 |
| 20260506000512 | 43 | 44 | 2.6 | 6.1 | 0.00 | 0.00 | 0.00 | 79 | 1010.9 |
| 20260505235513 | 43 | 33 | 2.6 | 5.2 | 0.00 | 0.00 | 0.00 | 81 | 1011.0 |
| 20260505232512 | 41 | 33 | 1.7 | 6.1 | 0.00 | 0.00 | 0.00 | 86 | 1011.0 |
| 20260505231513 | 41 | 28 | 0.9 | 4.3 | 0.00 | 0.00 | 0.00 | 87 | 1011.0 |
| 20260505230512 | 41 | 3 | 0.9 | 2.6 | 0.00 | 0.00 | 0.00 | 87 | 1011.1 |
| 20260505225512 | 41 | 22 | 0.9 | 2.6 | 0.00 | 0.00 | 0.00 | 87 | 1011.1 |
| 20260505221509 | 41 | 5 | 0.9 | 4.3 | 0.00 | 0.00 | 0.00 | 88 | 1011.2 |
| 20260505214514 | 40 | 9 | 0.9 | 2.6 | 0.00 | 0.00 | 0.00 | 88 | 1011.3 |
| 20260505213512 | 40 | 5 | 0.9 | 2.6 | 0.00 | 0.00 | 0.00 | 87 | 1011.3 |
| 20260505210513 | 40 | 349 | 0.9 | 1.7 | 0.00 | 0.00 | 0.00 | 84 | 1011.5 |
| 20260505205512 | 41 | 349 | 0.9 | 1.7 | 0.00 | 0.00 | 0.00 | 83 | 1011.4 |
| 20260505203513 | 42 | 349 | 0.0 | 1.7 | 0.00 | 0.00 | 0.00 | 82 | 1011.4 |
| 20260505201513 | 43 | 349 | 0.0 | 0.9 | 0.00 | 0.00 | 0.00 | 80 | 1011.4 |
| 20260505195513 | 44 | 349 | 0.0 | 1.7 | 0.00 | 0.00 | 0.00 | 78 | 1011.5 |
| 20260505194513 | 44 | 349 | 0.9 | 4.3 | 0.00 | 0.00 | 0.00 | 76 | 1011.5 |
| 20260505190513 | 47 | 355 | 0.0 | 0.9 | 0.00 | 0.00 | 0.00 | 70 | 1011.4 |
| 20260505183513 | 49 | 350 | 0.9 | 4.3 | 0.00 | 0.00 | 0.00 | 65 | 1011.1 |
| 20260505182513 | 50 | 355 | 1.7 | 4.3 | 0.00 | 0.00 | 0.00 | 63 | 1011.1 |
| 20260505174513 | 52 | 18 | 2.6 | 7.0 | 0.00 | 0.00 | 0.00 | 53 | 1011.1 |
| 20260505172513 | 53 | 356 | 3.5 | 7.8 | 0.00 | 0.00 | 0.00 | 54 | 1011.1 |
| 20260505171514 | 54 | 15 | 2.6 | 7.8 | 0.00 | 0.00 | 0.00 | 53 | 1011.2 |
| 20260505161513 | 55 | 23 | 4.3 | 8.7 | 0.00 | 0.00 | 0.00 | 57 | 1011.2 |
| 20260505160513 | 56 | 7 | 5.2 | 10.4 | 0.00 | 0.00 | 0.00 | 58 | 1011.3 |
| 20260505152514 | 57 | 0 | 5.2 | 11.3 | 0.00 | 0.00 | 0.00 | 56 | 1011.4 |
| 20260505140513 | 57 | 346 | 5.2 | 13.0 | 0.00 | 0.00 | 0.00 | 62 | 1011.4 |
| 20260505124514 | 57 | 331 | 5.2 | 8.7 | 0.00 | 0.00 | 0.00 | 61 | 1011.5 |
| 20260505120513 | 56 | 303 | 5.2 | 12.2 | 0.00 | 0.00 | 0.00 | 65 | 1011.6 |
| 20260505115513 | 56 | 331 | 6.1 | 11.3 | 0.00 | 0.00 | 0.00 | 63 | 1011.6 |
| 20260505114513 | 56 | 350 | 5.2 | 10.4 | 0.00 | 0.00 | 0.00 | 65 | 1011.7 |